This demonstration page uses our WeatherBlox Daily Observations layout. Learn more.

41.55636, -103.73856

Hourly Observations for May 27, 2018

Temp ( °F °C ) Dew Point ( °F °C ) Humidity (%) Winds ( mph kmh ) Pressure ( in mb ) Visibility ( mi km ) Precip ( " mm )
12:53 am 00:53 Clear 75 23.9 47 8.3 37 37 SSE 13 20 29.56 1001 10 16.09344 0 0
1:53 am 01:53 Clear 73 22.8 48 8.9 41 41 E 14 22 29.56 1001 10 16.09344 0 0
2:53 am 02:53 Clear 71 21.7 51 10.6 49 49 ESE 10 17 29.56 1001 10 16.09344 0 0
3:53 am 03:53 Clear 68 20 52 11.1 57 57 E 8 13 29.59 1002 10 16.09344 0 0
4:53 am 04:53 Clear 66 18.9 54 12.2 65 65 ESE 9 15 29.59 1002 10 16.09344 0 0
5:53 am 05:53 Sunny 66 18.9 55 12.8 68 68 E 5 7 29.62 1003 10 16.09344 0 0
6:53 am 06:53 Sunny 68 20 56 13.3 65 65 WSW 7 11 29.65 1004 10 16.09344 0 0
7:53 am 07:53 Sunny 69 20.6 56 13.3 63 63 W 10 17 29.68 1005 10 16.09344 0 0
8:53 am 08:53 Sunny 73 22.8 58 14.4 59 59 NW 9 15 29.68 1005 10 16.09344 0 0
9:53 am 09:53 Sunny 75 23.9 59 15 58 58 WNW 6 9 29.71 1006 10 16.09344 0 0
10:53 am 10:53 Sunny 77 25 58 14.4 52 52 NNW 6 9 29.71 1006 10 16.09344 0 0
11:53 am 11:53 Sunny 81 27.2 59 15 47 47 NNE 8 13 29.68 1005 10 16.09344 0 0
12:53 pm 12:53 Sunny 81 27.2 60 15.6 49 49 ENE 14 22 29.71 1006 10 16.09344 0 0
1:53 pm 13:53 Sunny 82 27.8 62 16.7 51 51 ENE 14 22 29.68 1005 10 16.09344 0 0
2:53 pm 14:53 Sunny 84 28.9 59 15 43 43 NE 12 19 29.68 1005 10 16.09344 0 0
3:53 pm 15:53 Sunny 85 29.4 57 13.9 39 39 SE 14 22 29.65 1004 10 16.09344 0 0
4:53 pm 16:53 Sunny 80 26.7 62 16.7 54 54 SE 9 15 29.65 1004 10 16.09344 0 0
5:53 pm 17:53 Sunny 79 26.1 61 16.1 54 54 NE 9 15 29.65 1004 10 16.09344 0 0
6:46 pm 18:46 Mostly Cloudy with Thunderstorms 77 25 63 17 61 61 N 9 15 29.53 1000 10 16.09344 0 0
6:53 pm 18:53 Cloudy with Thunderstorms 76 24.4 62 16.7 62 62 WSW 13 20 29.68 1005 10 16.09344 0 0
7:16 pm 19:16 Cloudy with Heavy Thunderstorms 61 16 57 14 88 88 W 26 43 29.83 1010 1.75 2.816352 0 0
7:26 pm 19:26 Cloudy with Heavy Thunderstorms 57 14 57 14 100 100 W 24 39 29.85 1011 0.75 1.207008 0 0
7:34 pm 19:34 Cloudy with Heavy Thunderstorms 57 14 57 14 100 100 WNW 21 33 29.83 1010 1.5 2.414016 0 0
7:45 pm 19:45 Cloudy with Thunderstorms 61 16.1 59 15 93 93 W 16 26 29.83 1010 2.5 4.02336 0.64 16.256
7:53 pm 19:53 Cloudy with Nearby Thunderstorms 58 14.4 58 14.4 100 100 WNW 8 13 29.88 1012 2.5 4.02336 0.67 17.018
8:01 pm 20:01 Cloudy with Nearby Thunderstorms 58 14.4 58 14.4 100 100 N 15 24 29.91 1013 1.75 2.816352 0.04 1.016
8:09 pm 20:09 Cloudy with Nearby Thunderstorms 58 14.4 58 14.4 100 100 N 18 30 29.88 1012 5 8.04672 0.07 1.778
8:38 pm 20:38 Mostly Cloudy with Light Rain 61 16 59 15 94 94 NNE 35 56 29.71 1006 10 16.09344 0 0
8:53 pm 20:53 Mostly Clear 63 17.2 59 15 87 87 N 17 28 29.71 1006 10 16.09344 0.11 2.794
9:53 pm 21:53 Clear 62 16.7 56 13.3 80 80 SE 17 28 29.88 1012 10 16.09344 0 0
10:53 pm 22:53 Cloudy 61 16.1 57 13.9 87 87 S 5 7 29.94 1014 10 16.09344 0 0
11:53 pm 23:53 Cloudy with Light Rain 59 15 59 15 100 100 ENE 13 20 29.91 1013 10 16.09344 0.03 0.762

Powered by AerisWeather